This demonstration page uses our WeatherBlox Daily Observations layout. Learn more.

Left ArrowRight Arrow

39.12711, -84.51439

Hourly Observations for July 6, 2021

Temp ( °F °C ) Dew Point ( °F °C ) Humidity (%) Winds ( mph kmh ) Pressure ( in mb ) Visibility ( mi km ) Precip ( " mm )
12:53 am 00:53 Clear with Mist and Fog 72 22.2 70 21.1 94 94 N N/A 30.07 1018 6 10 N/A
1:53 am 01:53 Clear with Mist and Fog 70 21.1 68 20 93 93 SSW 3 6 30.07 1018 5 8 N/A
2:35 am 02:35 Clear with Mist and Fog 71 21.7 69 20.6 94 94 N N/A 30.07 1018 2 3 N/A
2:53 am 02:53 Clear with Mist and Fog 71 21.7 70 21.1 96 96 N N/A 30.06 1018 1 2 N/A
3:02 am 03:02 Clear with Mist and Fog 70 21.1 69 20.6 97 97 N N/A 30.07 1018 3 5 N/A
3:26 am 03:26 Clear with Mist and Fog 70 21.1 69 20.6 97 97 N N/A 30.07 1018 3 4 N/A
3:38 am 03:38 Clear with Mist and Fog 70 21.1 68 20 93 93 N N/A 30.07 1018 3 5 N/A
3:51 am 03:51 Clear with Mist and Fog 70 21 70 21 100 100 N N/A 30.07 1018 3 4 N/A
3:53 am 03:53 Clear with Mist and Fog 70 21.1 69 20.6 97 97 N N/A 30.06 1018 3 5 N/A
4:13 am 04:13 Clear with Mist and Fog 69 20.6 68 20 96 96 N N/A 30.07 1018 2 3 N/A
4:38 am 04:38 Clear with Mist and Fog 70 21.1 68 20 93 93 N N/A 30.07 1018 3 5 N/A
4:53 am 04:53 Clear with Mist and Fog 70 21.1 69 20.6 97 97 N N/A 30.07 1018 4 6 N/A
5:10 am 05:10 Clear with Mist and Fog 69 20.6 67 19.4 93 93 N N/A 30.08 1019 3 4 N/A
5:18 am 05:18 Clear with Mist and Fog 69 20.6 68 20 96 96 N N/A 30.08 1019 1 2 N/A
5:40 am 05:40 Clear with Mist and Fog 69 20.6 68 20 96 96 N N/A 30.08 1019 1 1 N/A
5:48 am 05:48 Clear with Mist and Fog 70 21 68 20 94 94 N N/A 30.08 1019 3 4 N/A
5:49 am 05:49 Clear with Mist and Fog 69 20.6 68 20 96 96 N N/A 30.08 1019 3 4 N/A
6:06 am 06:06 Clear with Mist and Fog 68 20 68 20 100 100 N N/A 30.09 1019 1 1 N/A
6:20 am 06:20 Sunny with Mist and Fog 69 20.6 68 20 96 96 N N/A 30.09 1019 2 3 N/A
6:28 am 06:28 Sunny with Mist and Fog 69 20.6 68 20 96 96 N N/A 30.09 1019 2 2 N/A
6:47 am 06:47 Partly Cloudy with Mist and Fog 70 21 66 19 88 88 N N/A 30.09 1019 1 2 N/A
6:53 am 06:53 Partly Cloudy with Mist and Fog 68 20 67 19.4 96 96 N N/A 30.09 1019 2 2 N/A
7:37 am 07:37 Partly Cloudy with Mist and Fog 71 21.7 70 21.1 96 96 N N/A 30.09 1019 3 5 N/A
7:53 am 07:53 Sunny with Mist and Fog 73 22.8 71 21.7 94 94 N N/A 30.09 1019 4 6 N/A
8:53 am 08:53 Hazy 77 25 72 22.2 85 85 N N/A 30.10 1019 6 10 N/A
9:53 am 09:53 Sunny 82 27.8 74 23.3 77 77 N N/A 30.11 1020 8 13 N/A
10:53 am 10:53 Sunny 86 30 70 21.1 59 59 W 5 7 30.09 1019 10 16 N/A
11:53 am 11:53 Mostly Sunny 87 30.6 71 21.7 59 59 WSW 8 13 30.09 1019 10 16 N/A
12:53 pm 12:53 Sunny 88 31.1 70 21.1 55 55 W 7 11 30.08 1019 10 16 N/A
1:53 pm 13:53 Sunny 89 31.7 70 21.1 53 53 VRB 5 7 30.07 1018 10 16 N/A
2:53 pm 14:53 Partly Cloudy 90 32.2 70 21.1 52 52 WNW 6 9 30.05 1018 9 14 N/A
3:53 pm 15:53 Partly Cloudy 89 31.7 70 21.1 53 53 WNW 6 9 30.04 1017 8 13 N/A
4:53 pm 16:53 Sunny 90 32.2 70 21.1 52 52 SSW 3 6 30.02 1017 9 14 N/A
5:53 pm 17:53 Sunny 88 31.1 72 22.2 59 59 SSE 5 7 30.00 1016 8 13 N/A
6:53 pm 18:53 Partly Cloudy 85 29.4 76 24.4 75 75 SSE 3 6 30.00 1016 7 11 N/A
7:09 pm 19:09 Partly Cloudy with Nearby Thunderstorms 84 28.9 76 24.4 77 77 SSE 3 6 29.98 1015 6 10 N/A
7:26 pm 19:26 Partly Cloudy with Thunderstorms 84 28.9 73 22.8 70 70 SSE 7 11 29.99 1016 7 11 N/A
7:53 pm 19:53 Partly Cloudy with Thunderstorms 82 27.8 67 19.4 60 60 SSW 17 28 30.01 1016 9 14 N/A
8:02 pm 20:02 Mostly Cloudy with Thunderstorms 82 27.8 66 18.9 58 58 SW 8 13 30.00 1016 10 16 N/A
8:30 pm 20:30 Mostly Cloudy with Light Rain 76 24.4 69 20.6 79 79 NNE 8 13 30.00 1016 6 10 0.03 0.76
8:53 pm 20:53 Partly Cloudy 76 24.4 69 20.6 79 79 ENE 5 7 30.00 1016 9 14 0.03 0.76
9:53 pm 21:53 Clear 75 23.9 70 21.1 84 84 N N/A 30.01 1016 8 13 N/A
10:53 pm 22:53 Clear with Mist and Fog 72 22.2 70 21.1 94 94 N N/A 30.04 1017 6 10 N/A

Powered by AerisWeather